This demonstration page uses our WeatherBlox Daily Observations layout. Learn more.

Left ArrowRight Arrow

Hourly Observations for September 22, 2019

Temp ( °F °C ) Dew Point ( °F °C ) Humidity (%) Winds ( mph kmh ) Pressure ( in mb ) Visibility ( mi km ) Precip ( " mm )
12:53 am 00:53 Mostly Cloudy 69 20.6 52 11.1 55 55 NE 12 19 29.83 1010 10 16 0.00 0.00
1:53 am 01:53 Mostly Cloudy 68 20 58 14.4 70 70 ENE 13 20 29.84 1010 10 16 0.00 0.00
2:53 am 02:53 Cloudy 65 18.3 51 10.6 61 61 N 24 39 29.85 1011 10 16 0.00 0.00
3:53 am 03:53 Cloudy with Rain 60 15.6 55 12.8 84 84 N 13 20 29.89 1012 6 10 0.03 0.76
4:53 am 04:53 Cloudy with Heavy Rain 57 13.9 54 12.2 90 90 N 15 24 29.91 1013 4 6 0.16 4.06
5:53 am 05:53 Cloudy with Light Rain 57 13.9 53 11.7 87 87 N 20 31 29.91 1013 8 13 0.22 5.59
6:53 am 06:53 Partly Cloudy 56 13.3 52 11.1 87 87 N 14 22 29.93 1014 10 16 0.00 0.00
7:53 am 07:53 Cloudy 56 13.3 52 11.1 87 87 N 12 19 29.95 1014 10 16 0.00 0.00
8:53 am 08:53 Cloudy 59 15 52 11.1 78 78 ENE 10 17 29.93 1014 10 16 0.00 0.00
9:53 am 09:53 Sunny 63 17.2 51 10.6 65 65 ENE 9 15 29.93 1014 10 16 0.00 0.00
10:53 am 10:53 Sunny 66 18.9 52 11.1 61 61 NNW 12 19 29.98 1015 10 16 0.00 0.00
11:53 am 11:53 Sunny 66 18.9 53 11.7 63 63 NNW 10 17 29.98 1015 10 16 0.00 0.00
12:53 pm 12:53 Sunny 69 20.6 52 11.1 55 55 undefined N/A 29.96 1015 10 16 0.00 0.00
1:53 pm 13:53 Sunny 72 22.2 49 9.4 44 44 NNW 9 15 29.95 1014 10 16 0.00 0.00
2:53 pm 14:53 Mostly Sunny 73 22.8 50 10 44 44 WNW 8 13 29.94 1014 10 16 0.00 0.00
3:53 pm 15:53 Mostly Sunny 74 23.3 50 10 43 43 WNW 9 15 29.94 1014 10 16 0.00 0.00
4:53 pm 16:53 Mostly Sunny 74 23.3 50 10 43 43 WNW 10 17 29.94 1014 10 16 0.00 0.00
5:53 pm 17:53 Sunny 74 23.3 49 9.4 41 41 W 8 13 29.95 1014 10 16 0.00 0.00
6:53 pm 18:53 Sunny 72 22.2 50 10 46 46 W 5 7 29.96 1015 10 16 0.00 0.00
7:53 pm 19:53 Clear 68 20 52 11.1 57 57 Calm 29.98 1015 10 16 0.00 0.00
8:53 pm 20:53 Clear 65 18.3 54 12.2 68 68 Calm 30.00 1016 10 16 0.00 0.00
9:53 pm 21:53 Clear 63 17.2 53 11.7 70 70 Calm 30.01 1016 10 16 0.00 0.00
10:53 pm 22:53 Clear 61 16.1 53 11.7 75 75 Calm 30.02 1017 10 16 0.00 0.00
11:53 pm 23:53 Clear 59 15 54 12.2 83 83 Calm 30.03 1017 10 16 0.00 0.00

Powered by AerisWeather